Weather History for KPIE - August, 2013

Change the Weather History Date:

Wednesday, August 28, 2013

  Actual Average (KTPA) Record (KTPA)
Temperature  
Mean Temperature 82 °F 83 °F  
Max Temperature 90 °F 90 °F 97 °F (1960)
Min Temperature 75 °F 76 °F 68 °F (1984)
Degree Days  
Heating Degree Days 0 0  
Month to date heating degree days 0  
Since 1 June heating degree days 0  
Since 1 July heating degree days 0  
Cooling Degree Days 17 18  
Month to date cooling degree days 504  
Year to date cooling degree days 2455  
Since 1 June cooling degree days 1578  
Growing Degree Days 32 (Base 50)    
Moisture  
Dew Point 72 °F    
Average Humidity 77    
Maximum Humidity 94    
Minimum Humidity 50    
Precipitation  
Precipitation 0.42 in 0.25 in 4.65 in (1925)
Month to date precipitation 7.03  
Year to date precipitation 32.98  
Sea Level Pressure  
Sea Level Pressure 30.03 in    
Wind  
Wind Speed 4 mph (East)    
Max Wind Speed 14 mph    
Max Gust Speed 23 mph    
Visibility 10 miles    
Events Rain    
T = Trace of Precipitation, MM = Missing Value Source: NWS Daily Summary

Daily Weather History Graph

Daily Weather History Graph

Search for Another Location

Airport or City:

Trip Planner

Search our weather history database for the weather conditions in past years. The results will help you decide how hot, cold, wet, or windy it might be!

Date:

Astronomy

Aug. 28, 2013 Rise Set
Actual Time 7:07 AM EDT 7:55 PM EDT
Civil Twilight 6:43 AM EDT 8:19 PM EDT
Nautical Twilight 6:15 AM EDT 8:47 PM EDT
Astronomical Twilight 5:46 AM EDT 9:16 PM EDT
Moon 12:27 AM EDT (8/28) 2:18 PM EDT (8/28)
Length of Visible Light 13h 35m
Length of Day
12h 48m
Waning Gibbous, 47% of the Moon is Illuminated
Aug 28
Waning Gibbous
Sep 5
New
Sep 12
First Quarter
Sep 19
Full
Sep 26
Last Quarter

Hourly Weather History & Observations

Time (EDT) Temp. Heat Index Dew Point Humidity Pressure Visibility Wind Dir Wind Speed Gust Speed Precip Events Conditions
12:53 AM 78.1 °F - 73.9 °F 87% 30.04 in 10.0 mi Calm Calm - N/A   Scattered Clouds
1:53 AM 75.9 °F - 73.9 °F 94% 30.02 in 10.0 mi Calm Calm - N/A   Clear
2:53 AM 75.9 °F - 73.0 °F 91% 30.01 in 10.0 mi Calm Calm - N/A   Clear
3:53 AM 75.9 °F - 72.0 °F 87% 30.01 in 10.0 mi ESE 5.8 mph - 0.01 in   Clear
4:53 AM 75.9 °F - 71.1 °F 85% 30.00 in 10.0 mi East 5.8 mph - N/A   Partly Cloudy
5:53 AM 75.0 °F - 71.1 °F 87% 30.01 in 10.0 mi ESE 4.6 mph - N/A   Clear
6:53 AM 75.0 °F - 71.1 °F 87% 30.02 in 10.0 mi East 5.8 mph - N/A   Clear
7:53 AM 77.0 °F - 72.0 °F 84% 30.04 in 10.0 mi ESE 4.6 mph - N/A   Clear
8:53 AM 80.1 °F 83.8 °F 72.0 °F 76% 30.04 in 10.0 mi East 5.8 mph - N/A   Clear
9:53 AM 82.0 °F 86.7 °F 72.0 °F 71% 30.05 in 10.0 mi ESE 8.1 mph - N/A   Clear
10:53 AM 82.9 °F 88.0 °F 72.0 °F 69% 30.06 in 10.0 mi ESE 6.9 mph - N/A   Clear
11:53 AM 84.9 °F 90.7 °F 72.0 °F 65% 30.07 in 10.0 mi East 6.9 mph - N/A   Clear
12:53 PM 86.0 °F 90.7 °F 70.0 °F 59% 30.06 in 10.0 mi Variable 6.9 mph - N/A   Clear
1:53 PM 88.0 °F 92.9 °F 70.0 °F 55% 30.04 in 10.0 mi NNE 4.6 mph - N/A   Scattered Clouds
2:53 PM 89.1 °F 92.9 °F 68.0 °F 50% 30.02 in 10.0 mi North 3.5 mph - N/A   Scattered Clouds
3:53 PM 89.1 °F 94.1 °F 70.0 °F 53% 30.01 in 10.0 mi WNW 3.5 mph - N/A   Scattered Clouds
4:53 PM 84.9 °F 90.7 °F 72.0 °F 65% 29.99 in 10.0 mi WNW 6.9 mph - N/A   Scattered Clouds
5:53 PM 86.0 °F 92.2 °F 72.0 °F 63% 29.99 in 10.0 mi NNW 11.5 mph - N/A   Scattered Clouds
6:53 PM 82.0 °F 86.3 °F 71.1 °F 69% 29.99 in 10.0 mi SSE 13.8 mph - N/A   Mostly Cloudy
7:29 PM 77.0 °F - 71.6 °F 83% 30.02 in 4.0 mi Variable 6.9 mph 23.0 mph 0.21 in Rain Heavy Rain
7:53 PM 77.0 °F - 72.0 °F 84% 30.02 in 10.0 mi SW 4.6 mph - 0.41 in Rain Light Rain
8:53 PM 78.1 °F - 73.0 °F 84% 30.02 in 10.0 mi SSE 3.5 mph - 0.00 in   Scattered Clouds
9:53 PM 79.0 °F - 73.9 °F 84% 30.03 in 10.0 mi Calm Calm - N/A   Partly Cloudy
10:53 PM 78.1 °F - 75.0 °F 90% 30.05 in 10.0 mi Calm Calm - N/A   Overcast
11:53 PM 77.0 °F - 75.0 °F 94% 30.05 in 10.0 mi Calm Calm - N/A   Clear